Theta_e
359 357 355 355 353 352 353 352 350 350 352 349 348 350 349 354 355 354 353 355 356 358 360 364 366 368 363 366 367 367 365 370 367 364 368 365 362 360 355 356 359 358
360 360 357 354 355 355 354 352 352 351 352 354 351 351 353 355 354 355 354 353 356 357 361 360 363 366 367 365 367 364 364 364 364 359 361 365 363 358 355 355 355 359
361 359 356 353 351 352 351 353 355 353 350 351 352 354 351 354 356 359 359 356 356 354 358 360 362 364 363 365 368 368 364 367 364 364 364 364 364 361 362 359 358 358
362 361 357 354 352 351 351 352 353 355 353 351 350 350 352 352 355 356 360 360 358 357 357 359 359 359 362 363 365 363 363 367 367 368 366 366 364 362 361 360 359 358
359 360 360 358 356 356 354 351 351 352 351 351 351 352 353 355 357 354 357 358 360 358 359 359 360 359 361 364 365 363 362 360 365 367 365 364 365 363 359 358 358 356
360 361 361 361 359 359 356 353 351 351 352 350 351 351 350 353 354 354 356 356 356 355 354 354 356 357 358 361 364 363 361 357 360 367 366 365 363 360 358 358 361 360
359 359 358 358 359 358 357 357 356 355 353 354 353 352 352 352 354 356 356 355 355 357 353 356 358 357 357 359 363 362 362 362 362 365 366 365 367 364 361 358 360 359
358 361 360 359 356 356 357 357 357 358 359 358 355 356 356 353 356 356 355 354 354 354 357 354 357 360 356 360 362 362 363 359 358 362 366 364 363 363 364 360 360 361
356 357 358 358 355 353 352 353 355 358 359 358 356 357 360 359 357 358 358 356 355 355 357 355 359 356 358 360 360 362 363 361 358 360 361 360 360 362 361 361 359 360
355 356 355 356 355 354 351 351 352 354 357 357 357 357 356 360 360 359 359 360 356 357 356 357 357 357 357 360 360 359 360 364 363 362 361 360 359 359 361 363 361 361
352 353 354 355 355 354 353 352 351 350 353 355 356 356 357 357 359 361 360 360 356 357 357 358 358 357 359 358 359 360 360 361 363 363 363 361 360 360 363 362 362 360
353 352 352 353 354 355 354 353 352 351 351 352 355 356 357 355 356 358 358 360 360 359 359 359 360 360 360 360 358 358 360 362 362 362 362 363 363 362 362 363 362 361
354 352 352 352 354 355 355 355 353 352 351 350 353 355 355 354 354 357 359 359 361 361 356 360 360 360 362 361 361 361 359 360 359 360 360 360 361 360 361 362 361 360
359 356 353 355 356 360 357 356 355 354 355 354 353 354 353 353 352 353 355 361 358 360 361 358 359 361 362 363 362 361 359 358 358 359 358 358 358 358 359 359 359 358
357 361 360 359 359 361 363 360 358 358 363 359 358 357 356 357 354 351 354 355 358 360 360 361 356 357 360 362 362 362 361 359 359 358 358 357 357 355 355 356 359 356
354 354 354 361 361 363 366 368 363 362 364 366 364 363 363 359 357 357 354 352 354 357 358 358 358 355 362 361 363 364 363 359 359 359 360 358 359 358 358 357 357 356
355 352 351 353 365 365 366 367 363 361 366 369 369 366 362 361 360 356 355 353 351 355 355 356 358 361 360 347 349 357 364 363 362 362 362 362 361 363 361 360 358 355
354 351 352 352 354 360 364 365 364 365 365 366 363 360 362 359 359 358 360 358 354 355 354 356 357 353 338 338 342 343 358 362 360 360 359 358 359 359 359 360 358 354
351 348 347 347 351 355 364 360 364 365 364 364 362 362 360 363 362 360 360 358 355 354 353 356 354 339 336 339 341 339 337 349 358 358 357 358 358 359 360 363 362 362
350 349 346 347 349 349 354 360 365 363 365 364 363 364 361 360 360 360 361 360 359 356 357 359 355 343 336 337 335 335 339 346 357 357 356 355 357 359 361 362 363 362
349 347 346 347 349 351 350 351 356 362 362 362 362 362 361 360 359 358 357 357 355 355 356 356 354 331 332 334 334 335 338 347 358 357 359 357 358 361 364 364 364 363
350 349 346 344 347 349 353 351 352 359 359 363 359 358 356 355 354 355 354 354 355 356 354 356 353 326 329 329 330 332 336 353 357 359 359 360 358 359 360 362 364 364
346 347 347 346 346 346 347 350 354 354 359 364 358 355 354 352 351 351 354 356 358 358 356 356 352 328 322 323 324 326 336 354 359 358 361 358 357 359 363 364 363 363
340 339 339 340 339 339 342 345 349 350 348 357 355 353 352 352 352 352 353 355 354 356 356 355 346 327 319 318 320 321 336 354 358 359 358 360 359 362 364 363 362 363
339 339 338 338 337 337 338 340 342 346 349 351 354 354 352 352 351 351 352 353 351 352 351 350 343 330 315 317 317 320 335 351 355 354 356 358 357 358 363 363 363 362
338 337 337 337 337 338 340 340 341 342 344 344 345 345 346 346 348 349 350 348 349 349 347 345 339 332 322 314 315 317 321 341 354 353 351 350 351 352 352 359 363 364
Wind_Speed
10 9 9 9 8 8 9 9 8 8 7 7 8 7 7 6 6 5 6 6 6 6 6 5 5 5 5 5 4 4 4 4 4 4 4 4 5 6 7 6 6 6
11 10 9 9 8 8 8 8 8 8 8 7 6 6 7 6 7 7 6 6 6 7 6 6 6 6 6 5 5 5 5 5 6 5 5 6 5 7 7 8 7 6
12 12 12 12 11 11 11 9 8 8 8 9 8 6 7 7 7 8 7 7 7 7 8 7 7 7 7 6 5 5 6 5 6 6 5 5 6 6 6 7 7 6
13 12 12 12 11 11 11 9 9 8 8 9 9 9 7 6 8 8 7 7 7 7 6 8 8 8 8 7 7 6 7 6 6 6 5 5 6 6 6 7 7 7
13 12 11 11 10 10 10 11 12 11 10 9 10 9 8 7 6 8 8 8 8 8 8 7 8 8 7 7 7 7 7 7 7 6 6 6 6 7 7 7 7 7
12 11 11 11 11 10 11 11 11 11 11 11 10 9 9 10 9 8 8 9 10 10 9 10 9 9 9 8 8 7 7 7 7 7 7 7 7 8 7 6 6 7
13 13 14 12 12 12 11 11 10 11 10 11 10 10 10 10 10 10 9 9 10 9 10 8 8 8 8 7 8 8 7 7 7 4 7 6 6 9 8 8 7 7
13 9 11 12 13 13 12 11 11 10 10 10 11 11 11 10 11 11 11 10 10 10 9 9 8 8 9 8 8 8 9 8 8 8 8 8 8 8 8 8 7 7
11 13 13 14 14 13 14 13 12 11 11 11 10 10 10 10 11 11 10 10 10 9 9 9 8 9 9 9 8 8 9 9 8 9 9 9 9 10 9 9 9 8
12 11 14 13 14 12 14 14 12 11 11 11 11 10 10 10 11 11 11 9 10 10 9 10 10 9 10 10 10 9 9 9 9 8 9 9 9 10 10 8 10 9
13 12 12 12 13 12 14 13 13 12 12 12 11 11 11 10 11 10 10 10 11 12 11 10 11 11 11 11 10 9 10 10 10 10 9 10 9 10 9 9 9 10
13 12 13 13 12 13 13 13 13 13 12 11 11 11 11 11 10 11 10 12 11 12 12 11 11 10 10 10 11 11 10 10 10 10 10 9 10 10 11 10 10 10
13 13 11 11 12 12 12 11 11 12 12 12 10 10 11 11 11 10 10 11 11 12 13 12 11 11 10 10 11 10 11 10 10 10 10 9 10 11 10 11 10 10
11 13 13 11 9 8 10 11 11 11 10 9 9 11 11 11 12 11 12 5 7 9 10 12 12 11 11 11 11 11 11 11 10 10 10 9 8 9 10 11 11 10
13 12 10 8 9 8 8 10 10 7 4 1 2 2 3 6 7 11 12 12 13 13 13 9 12 12 10 11 11 12 11 11 11 11 11 10 10 11 10 11 8 10
4 7 14 12 11 7 6 6 8 8 3 3 2 0 0 2 3 9 13 12 13 11 11 11 9 10 10 12 11 9 10 9 10 8 6 7 9 9 8 10 10 11
4 4 7 15 10 7 7 8 9 8 5 3 4 4 4 3 5 7 8 12 13 12 11 11 7 7 8 11 13 10 9 9 8 7 5 3 6 6 7 8 10 11
5 4 5 8 14 12 9 9 8 8 7 5 5 6 4 5 9 8 7 6 8 10 11 9 7 10 16 17 19 14 9 9 9 8 7 7 6 7 6 5 5 6
6 7 5 6 8 13 10 9 9 8 7 5 5 5 4 5 6 7 5 3 1 1 6 10 5 7 11 9 9 4 10 16 11 10 11 8 8 7 7 5 5 4
4 5 7 7 8 10 13 9 7 7 6 5 5 5 4 4 5 3 3 3 2 2 1 3 2 6 4 7 7 2 5 2 7 11 11 5 10 9 7 5 3 1
3 2 6 9 10 10 11 10 8 6 6 5 6 5 4 4 4 3 3 3 3 3 2 2 7 5 6 9 10 10 8 2 6 6 4 8 9 7 6 7 5 4
5 2 7 9 9 10 8 8 12 7 6 5 7 6 4 3 5 4 4 5 5 5 5 5 4 10 9 5 1 2 3 5 7 7 7 4 6 6 9 8 7 5
6 7 6 4 4 6 7 8 7 6 5 2 5 6 6 6 6 6 5 5 6 5 5 4 5 7 9 9 8 8 4 6 7 8 6 7 7 8 8 7 6 6
8 8 8 7 7 7 8 7 7 5 10 5 6 7 9 8 6 5 4 4 6 5 1 2 6 8 10 10 9 9 8 7 5 5 5 5 6 7 6 6 6 8
8 10 9 9 9 9 8 8 8 7 7 5 5 5 7 4 4 3 2 2 2 4 2 4 7 7 10 10 11 11 7 6 5 5 4 4 5 6 4 4 4 3
10 10 10 9 9 8 7 7 7 8 8 6 3 4 2 4 4 2 2 2 4 5 7 8 7 6 7 11 12 12 11 6 5 6 5 5 6 5 8 6 3 2
Wind_Direction
193 192 194 200 199 204 198 196 197 199 212 208 202 202 217 200 215 233 213 202 189 210 204 210 213 220 217 215 222 236 250 252 270 253 245 267 270 267 268 274 273 275
198 197 193 198 197 208 216 205 195 207 196 224 226 196 201 202 194 212 221 219 199 207 211 206 210 218 231 228 212 231 237 237 239 248 242 234 247 259 263 264 271 281
202 198 199 200 198 201 211 208 199 205 203 204 218 228 197 200 204 195 211 216 219 217 194 216 214 209 221 223 226 227 227 233 246 257 252 252 258 273 280 282 278 268
204 206 203 205 206 198 205 207 207 205 217 199 207 211 219 208 199 198 199 211 221 226 221 206 215 215 209 216 215 228 228 229 238 247 253 254 255 266 269 266 263 266
202 206 210 208 213 207 199 206 209 202 213 211 202 209 202 228 220 208 198 199 215 216 218 218 207 219 214 215 214 222 230 229 227 227 241 254 255 249 258 259 262 270
203 205 210 217 212 211 209 207 212 214 206 215 215 206 207 205 219 226 209 203 202 215 218 212 212 213 215 208 213 226 230 233 230 203 222 240 246 250 258 257 255 255
199 200 207 211 216 212 217 214 210 216 215 215 209 217 215 207 208 218 224 216 218 212 220 219 209 218 217 219 213 218 231 241 253 212 206 230 260 261 256 261 266 266
204 198 209 209 210 214 216 215 217 211 215 214 215 211 216 221 211 213 216 223 224 225 224 223 209 210 227 222 219 217 222 224 224 229 236 235 239 256 251 259 264 259
211 201 206 207 212 214 214 217 212 215 208 216 219 217 208 217 217 218 216 214 225 229 220 230 225 212 219 229 228 220 223 235 234 222 222 235 243 240 250 250 249 255
209 205 217 211 215 216 218 218 215 213 218 216 218 220 219 207 219 219 217 215 219 224 227 224 224 221 226 225 227 229 232 231 238 240 238 228 229 249 247 243 245 248
219 212 218 221 218 217 218 220 220 216 213 219 218 223 223 220 205 217 222 216 218 218 221 223 224 223 223 233 232 225 227 233 233 234 236 245 247 249 254 254 255 250
231 228 214 216 224 227 223 219 220 221 222 214 217 222 223 227 223 209 217 219 220 223 222 218 223 227 229 231 235 237 231 230 231 237 239 240 245 245 242 245 252 252
233 233 240 226 214 224 228 223 225 226 222 227 217 217 221 227 230 231 221 219 217 223 228 225 219 224 228 227 234 241 242 239 239 238 238 242 241 247 251 254 247 249
233 235 231 238 243 222 225 228 224 226 228 229 233 225 217 223 236 231 233 171 244 252 246 233 223 222 221 225 229 231 232 234 240 244 245 250 262 258 256 253 252 253
306 307 293 266 235 237 232 232 230 212 81 78 62 3 352 324 286 254 240 225 212 219 221 227 235 223 220 221 221 227 234 240 236 235 238 238 238 254 260 264 260 262
269 290 299 275 246 224 223 234 235 238 226 133 106 67 313 210 250 294 273 247 240 236 233 230 227 236 228 214 224 223 229 240 238 240 258 278 277 263 261 260 275 272
266 263 274 287 265 225 232 231 235 239 222 180 163 176 182 221 253 245 265 269 248 241 243 237 238 259 273 206 202 233 258 236 232 239 223 260 265 259 261 264 263 279
255 241 264 278 295 280 238 228 225 223 226 217 218 202 194 222 238 233 236 261 279 281 258 254 256 30 37 21 360 335 299 261 248 247 233 217 244 261 265 290 322 285
265 269 273 276 269 267 250 237 229 222 221 212 220 220 198 203 232 256 262 270 235 275 335 334 338 88 109 137 161 231 338 330 283 267 253 251 237 228 251 241 242 279
235 246 268 268 258 264 281 258 222 218 216 212 214 204 214 216 232 250 275 285 262 284 283 156 126 43 99 82 89 106 253 204 277 288 290 277 260 263 263 252 243 162
267 305 291 273 264 259 250 270 270 235 215 218 215 208 199 204 213 208 218 236 232 218 225 234 127 134 102 148 164 195 206 209 258 266 288 311 314 302 291 269 250 230
6 195 224 257 280 265 242 233 245 244 230 207 227 230 218 199 199 200 207 220 233 250 255 255 106 105 107 83 113 244 227 231 233 234 241 248 262 240 246 259 253 238
43 46 52 33 345 319 283 257 260 258 237 205 231 219 208 201 201 200 207 221 226 214 219 247 89 58 71 71 47 10 299 248 256 257 236 238 234 247 250 250 255 255
47 46 47 39 32 23 9 353 336 303 266 222 223 227 227 215 202 187 192 213 234 234 303 59 84 47 36 53 55 26 337 301 267 262 254 249 242 244 252 254 259 279
56 54 48 41 36 26 21 15 3 355 344 318 287 222 182 168 154 153 88 46 10 301 300 102 83 56 39 48 52 39 8 318 303 281 283 271 284 272 259 251 252 237
55 53 48 47 44 36 29 29 22 16 8 355 1 358 312 129 117 120 224 86 67 96 81 90 87 62 47 52 50 41 20 337 305 290 293 300 277 268 274 276 270 276